EW5168 Weather Reports


Display with metric or nautical units.
time (UTC)temp
F
wind
direction
speed
MPH
gust
MPH
rain 1hr
in
rain 24hr
in
rain mn
in
humidity
%
barometer
mb
20260504183451 78 134 5.0 16.0 0.00 0.00 0.00 38 1011.7
20260504182950 78 167 6.0 16.0 0.00 0.00 0.00 38 1011.6
20260504182451 78 165 5.0 16.0 0.00 0.00 0.00 37 1011.7
20260504181949 77 126 7.0 16.0 0.00 0.00 0.00 37 1011.8
20260504181448 77 157 7.0 23.0 0.00 0.00 0.00 37 1011.9
20260504180952 76 209 6.0 15.0 0.00 0.00 0.00 37 1012.1
20260504180948 77 190 6.0 23.0 0.00 0.00 0.00 37 1011.9
20260504175949 77 155 7.0 17.0 0.00 0.00 0.00 37 1012.2
20260504175449 77 217 7.0 17.0 0.00 0.00 0.00 36 1012.3
20260504174953 76 227 7.0 15.0 0.00 0.00 0.00 36 1012.3
20260504174949 77 155 7.0 15.0 0.00 0.00 0.00 36 1012.3
20260504174555 76 192 7.0 17.0 0.00 0.00 0.00 36 1012.4
20260504173449 76 100 7.0 17.0 0.00 0.00 0.00 35 1012.6
20260504172950 76 207 7.0 19.0 0.00 0.00 0.00 35 1012.6
20260504172448 76 140 6.0 19.0 0.00 0.00 0.00 35 1012.7
20260504171948 76 159 6.0 17.0 0.00 0.00 0.00 34 1012.6
20260504171447 76 223 6.0 17.0 0.00 0.00 0.00 34 1012.7
20260504170951 75 146 5.0 19.0 0.00 0.00 0.00 33 1012.8
20260504170947 75 180 6.0 19.0 0.00 0.00 0.00 33 1012.7
20260504150942 68 173 6.0 20.0 0.00 0.00 0.00 20 1014.1
20260504150938 69 158 7.0 15.0 0.00 0.00 0.00 21 1014.2
20260504140935 64 227 5.0 12.0 0.00 0.00 0.00 3 1014.2
20260504140438 63 198 5.0 13.0 0.00 0.00 0.00 1 1014.2
20260504140434 64 180 5.0 12.0 0.00 0.00 0.00 2 1014.2
20260504110416 59 203 3.0 9.0 0.00 0.00 0.00 1 1013.6
20260504080908 61 123 4.0 12.0 0.00 0.00 0.00 7 1014.5
20260504080407 61 232 3.0 10.0 0.00 0.00 0.00 9 1014.5
20260504070403 63 192 4.0 12.0 0.00 0.00 0.00 33 1015.1
20260504050352 64 185 2.0 6.0 0.00 0.00 0.00 47 1016.1
20260504045852 64 179 2.0 5.0 0.00 0.00 0.00 48 1016.3
20260504045352 64 194 2.0 5.0 0.00 0.00 0.00 49 1016.3
20260504044852 64 185 2.0 4.0 0.00 0.00 0.00 49 1016.4
20260504044352 64 177 2.0 4.0 0.00 0.00 0.00 50 1016.4
20260504043853 64 146 2.0 5.0 0.00 0.00 0.00 50 1016.4
20260504043352 64 159 2.0 5.0 0.00 0.00 0.00 50 1016.4
20260504042852 64 195 1.0 5.0 0.00 0.00 0.00 50 1016.4
20260504042352 65 181 1.0 4.0 0.00 0.00 0.00 51 1016.5
20260504041852 65 189 1.0 4.0 0.00 0.00 0.00 51 1016.4
20260504041351 65 191 1.0 4.0 0.00 0.00 0.00 51 1016.4
20260504040853 65 167 1.0 4.0 0.00 0.00 0.00 51 1016.5
20260504040350 65 194 2.0 4.0 0.00 0.00 0.00 51 1016.6
20260504035849 65 171 2.0 4.0 0.00 0.00 0.00 51 1016.6
20260504035348 65 173 1.0 4.0 0.00 0.00 0.00 52 1016.6
20260504034848 65 180 2.0 6.0 0.00 0.00 0.00 52 1016.6
20260504034349 65 167 2.0 6.0 0.00 0.00 0.00 52 1016.6
20260504033848 65 190 2.0 5.0 0.00 0.00 0.00 52 1016.6
20260504033346 65 202 2.0 5.0 0.00 0.00 0.00 52 1016.6
20260504032845 65 161 2.0 4.0 0.00 0.00 0.00 52 1016.6
20260504032344 66 170 2.0 5.0 0.00 0.00 0.00 52 1016.6
20260504031844 66 188 2.0 5.0 0.00 0.00 0.00 52 1016.6
20260504031344 66 188 2.0 5.0 0.00 0.00 0.00 52 1016.4
20260504030950 67 217 2.0 6.0 0.00 0.00 0.00 53 1016.5
20260504030845 66 190 2.0 6.0 0.00 0.00 0.00 52 1016.4
20260504030344 66 178 2.0 6.0 0.00 0.00 0.00 52 1016.4
20260504025847 67 202 2.0 6.0 0.00 0.00 0.00 53 1016.4
20260504025842 67 162 2.0 5.0 0.00 0.00 0.00 52 1016.3
20260504024342 67 172 1.0 5.0 0.00 0.00 0.00 52 1016.5
20260504023842 67 157 2.0 4.0 0.00 0.00 0.00 52 1016.5
20260504023343 67 187 2.0 4.0 0.00 0.00 0.00 52 1016.5
20260504022838 67 171 2.0 4.0 0.00 0.00 0.00 52 1016.5
20260504022340 68 187 1.0 5.0 0.00 0.00 0.00 52 1016.3
20260504022336 67 169 1.0 4.0 0.00 0.00 0.00 52 1016.4
20260504021340 68 175 2.0 4.0 0.00 0.00 0.00 53 1016.2
20260504021336 68 163 2.0 5.0 0.00 0.00 0.00 52 1016.3
20260504020336 68 169 2.0 4.0 0.00 0.00 0.00 53 1016.2
20260504015835 68 192 1.0 3.0 0.00 0.00 0.00 53 1016.2
20260504015336 68 179 1.0 3.0 0.00 0.00 0.00 53 1016.1
20260504014836 69 179 1.0 3.0 0.00 0.00 0.00 53 1016.1
20260504014334 69 144 1.0 3.0 0.00 0.00 0.00 53 1016.0
20260504013834 69 168 1.0 3.0 0.00 0.00 0.00 53 1016.1
20260504013334 69 167 1.0 3.0 0.00 0.00 0.00 53 1016.0
20260504012834 70 159 1.0 3.0 0.00 0.00 0.00 53 1015.9
20260504012331 70 173 1.0 4.0 0.00 0.00 0.00 52 1015.9
20260504011830 70 150 1.0 4.0 0.00 0.00 0.00 52 1015.9
20260504011330 70 157 2.0 6.0 0.00 0.00 0.00 52 1016.0
20260504010830 71 155 2.0 6.0 0.00 0.00 0.00 51 1016.1
20260504010333 71 167 2.0 5.0 0.00 0.00 0.00 51 1016.0
20260504010329 71 169 1.0 3.0 0.00 0.00 0.00 51 1016.1
20260504005329 72 161 2.0 6.0 0.00 0.00 0.00 50 1016.0
20260504004829 72 225 2.0 7.0 0.00 0.00 0.00 50 1016.1
20260504004334 73 184 2.0 12.0 0.00 0.00 0.00 49 1016.0
20260504004330 72 194 2.0 7.0 0.00 0.00 0.00 50 1016.1
20260504003328 73 177 2.0 12.0 0.00 0.00 0.00 49 1016.1
20260504002826 73 158 2.0 6.0 0.00 0.00 0.00 49 1016.1
20260504002325 74 203 3.0 7.0 0.00 0.00 0.00 47 1016.2
20260504001825 74 183 3.0 8.0 0.00 0.00 0.00 46 1016.2
20260504001329 74 202 2.0 6.0 0.00 0.00 0.00 46 1016.2
20260504001325 74 136 2.0 8.0 0.00 0.00 0.00 46 1016.1
20260504000324 74 182 2.0 6.0 0.00 0.00 0.00 46 1016.1
20260503235824 74 199 3.0 12.0 0.00 0.00 0.00 45 1016.3
20260503235323 74 179 3.0 12.0 0.00 0.00 0.00 45 1016.4
20260503234823 75 199 3.0 7.0 0.00 0.00 0.00 45 1016.4
20260503234324 75 140 3.0 7.0 0.00 0.00 0.00 44 1016.4
20260503233823 75 147 3.0 8.0 0.00 0.00 0.00 43 1016.5
20260503233323 75 172 3.0 8.0 0.00 0.00 0.00 43 1016.6
20260503232821 76 161 3.0 9.0 0.00 0.00 0.00 43 1016.6
20260503232325 76 173 4.0 10.0 0.00 0.00 0.00 42 1016.6
20260503232321 76 188 3.0 10.0 0.00 0.00 0.00 42 1016.6
20260503231319 77 157 4.0 10.0 0.00 0.00 0.00 41 1016.5
20260503230819 77 160 4.0 10.0 0.00 0.00 0.00 41 1016.7
20260503230317 77 227 5.0 13.0 0.00 0.00 0.00 40 1016.6
20260503225817 77 159 4.0 14.0 0.00 0.00 0.00 39 1016.7
20260503225317 78 190 5.0 14.0 0.00 0.00 0.00 40 1016.8
20260503224816 78 159 5.0 12.0 0.00 0.00 0.00 39 1016.9
20260503224320 77 225 5.0 12.0 0.00 0.00 0.00 40 1016.9
20260503224315 78 183 5.0 12.0 0.00 0.00 0.00 41 1016.9
20260503223319 77 176 6.0 13.0 0.00 0.00 0.00 39 1017.0
20260503223315 77 198 5.0 13.0 0.00 0.00 0.00 41 1016.9
20260503222315 77 147 6.0 13.0 0.00 0.00 0.00 39 1017.0
20260503221815 78 168 6.0 14.0 0.00 0.00 0.00 39 1017.0
20260503221315 78 140 6.0 14.0 0.00 0.00 0.00 38 1017.2
20260503220815 78 163 5.0 12.0 0.00 0.00 0.00 39 1017.1
20260503220315 78 165 5.0 11.0 0.00 0.00 0.00 38 1017.2
20260503215816 78 151 5.0 10.0 0.00 0.00 0.00 38 1017.3
20260503215312 79 202 4.0 15.0 0.00 0.00 0.00 38 1017.3
20260503214811 78 224 5.0 15.0 0.00 0.00 0.00 37 1017.4
20260503214309 78 138 6.0 15.0 0.00 0.00 0.00 37 1017.6
20260503213809 78 167 6.0 15.0 0.00 0.00 0.00 36 1017.7
20260503213309 78 171 5.0 13.0 0.00 0.00 0.00 37 1017.7
20260503212809 78 128 4.0 11.0 0.00 0.00 0.00 36 1017.8
20260503212309 78 180 4.0 12.0 0.00 0.00 0.00 38 1017.9
20260503211813 78 161 5.0 12.0 0.00 0.00 0.00 35 1018.1
20260503211809 78 169 4.0 12.0 0.00 0.00 0.00 36 1018.0
20260503210807 79 215 5.0 11.0 0.00 0.00 0.00 34 1018.2
20260503210307 79 152 5.0 11.0 0.00 0.00 0.00 35 1018.3
20260503205807 79 204 5.0 11.0 0.00 0.00 0.00 35 1018.3
20260503205307 80 193 4.0 9.0 0.00 0.00 0.00 33 1018.3
20260503204810 80 87 4.0 10.0 0.00 0.00 0.00 35 1018.5
20260503204806 80 198 3.0 10.0 0.00 0.00 0.00 35 1018.5
20260503203805 79 184 5.0 12.0 0.00 0.00 0.00 35 1018.6
20260503203302 79 156 5.0 12.0 0.00 0.00 0.00 35 1018.7
20260503202802 80 135 5.0 12.0 0.00 0.00 0.00 35 1018.9
20260503202301 80 156 5.0 14.0 0.00 0.00 0.00 37 1019.0
20260503201805 80 197 5.0 14.0 0.00 0.00 0.00 40 1019.1
20260503201801 79 199 4.0 14.0 0.00 0.00 0.00 36 1019.1
20260503200803 80 114 5.0 13.0 0.00 0.00 0.00 36 1019.1
20260503200759 80 159 4.0 10.0 0.00 0.00 0.00 37 1019.0
20260503195759 80 146 5.0 13.0 0.00 0.00 0.00 37 1019.2
20260503195259 80 232 5.0 13.0 0.00 0.00 0.00 36 1019.3
20260503194759 80 180 5.0 13.0 0.00 0.00 0.00 37 1019.3
20260503194259 80 178 4.0 12.0 0.00 0.00 0.00 36 1019.4
20260503193759 80 247 4.0 12.0 0.00 0.00 0.00 33 1019.5
20260503193259 80 211 4.0 12.0 0.00 0.00 0.00 33 1019.5
20260503192759 80 169 3.0 11.0 0.00 0.00 0.00 37 1019.6
20260503192259 79 186 5.0 14.0 0.00 0.00 0.00 35 1019.7
20260503191802 79 215 5.0 11.0 0.00 0.00 0.00 33 1019.8
20260503191758 79 121 5.0 14.0 0.00 0.00 0.00 35 1019.8
20260503190757 80 160 4.0 11.0 0.00 0.00 0.00 33 1019.9
20260503190302 79 144 4.0 11.0 0.00 0.00 0.00 33 1020.0
20260503190257 80 218 4.0 11.0 0.00 0.00 0.00 34 1020.0
20260503185257 78 134 5.0 11.0 0.00 0.00 0.00 33 1020.2
20260503184755 78 166 4.0 12.0 0.00 0.00 0.00 34 1020.3